Location: Dyersburg
(36.0438°N, 89.3789°W)
Time: 15:10:02
(UTC+00:00)

Vanguard 3 - All Passes

Search period start: 21 February 2020 00:00
Search period end: 02 March 2020 00:00
Orbit: 508 x 3263 km, 33.3° (Epoch: 20 February)

Date Brightness Start Highest point End Pass type
(mag) Time Alt. Az. Time Alt. Az. Time Alt. Az.
21 Feb - 15:08:29 10° SW 15:13:06 40° SSE 15:20:33 10° E daylight
21 Feb - 17:18:22 10° W 17:24:59 75° S 17:37:14 10° E daylight
21 Feb - 19:29:20 10° W 19:38:34 67° SSW 19:54:47 10° ESE daylight
21 Feb - 21:41:42 10° W 21:53:16 41° SSW 22:10:04 10° SSE daylight
21 Feb - 23:59:13 10° WSW 00:08:17 17° SW 00:18:31 10° S visible
22 Feb - 13:56:39 10° S 13:59:52 20° SE 14:04:06 10° E daylight
22 Feb - 16:05:23 10° WSW 16:10:44 64° SSE 16:20:12 10° E daylight
22 Feb - 18:15:55 10° W 18:23:26 74° S 18:37:18 10° ESE daylight
22 Feb - 20:27:21 10° W 20:37:27 51° SSW 20:53:57 10° SE daylight
22 Feb - 22:41:27 10° W 22:52:18 26° SW 23:06:17 10° SSE daylight
23 Feb - 14:52:43 10° SW 14:57:02 42° SSE 15:03:51 10° E daylight
23 Feb - 17:02:44 10° W 17:08:49 75° S 17:20:00 10° E daylight
23 Feb - 19:13:37 10° W 19:22:03 61° SSW 19:37:03 10° ESE daylight
23 Feb - 21:25:59 10° W 21:36:25 35° SSW 21:51:44 10° SSE daylight
23 Feb - 23:45:21 10° WSW 23:51:20 13° SW 23:57:58 10° SSW daylight
24 Feb - 13:40:37 10° SSW 13:43:47 22° SSE 13:47:53 10° E daylight
24 Feb - 15:49:46 10° WSW 15:54:43 66° SSE 16:03:17 10° E daylight
24 Feb - 18:00:16 10° W 18:07:10 69° S 18:19:52 10° ESE daylight
24 Feb - 20:11:38 10° W 20:20:49 45° SSW 20:35:54 10° SE daylight
24 Feb - 22:26:13 10° WSW 22:35:27 21° SW 22:47:13 10° S daylight
25 Feb - 14:37:00 10° SW 14:41:04 46° SSE 14:47:15 10° E daylight
25 Feb - 16:47:09 10° W 16:52:45 73° S 17:02:52 10° E daylight
25 Feb - 18:57:57 10° W 19:05:40 55° SSW 19:19:19 10° SE daylight
25 Feb - 21:10:28 10° W 21:19:44 29° SSW 21:33:11 10° SSE daylight
26 Feb - 13:24:37 10° SSW 13:27:47 24° SSE 13:31:45 10° E daylight
26 Feb - 15:34:10 10° WSW 15:38:46 67° S 15:46:28 10° E daylight
26 Feb - 17:44:39 10° W 17:50:59 64° S 18:02:29 10° ESE daylight
26 Feb - 19:56:03 10° W 20:04:20 38° SSW 20:17:46 10° SE daylight
26 Feb - 22:11:35 10° WSW 22:18:45 16° SSW 22:27:34 10° S daylight
27 Feb - 12:13:45 10° SSE 12:14:35 11° SSE 12:15:26 10° SE daylight
27 Feb - 14:21:19 10° WSW 14:25:10 49° SSE 14:30:47 10° E daylight
27 Feb - 16:31:34 10° W 16:36:45 69° S 16:45:51 10° ESE daylight
27 Feb - 18:42:22 10° W 18:49:22 47° SSW 19:01:35 10° SE daylight
27 Feb - 20:55:13 10° WSW 21:03:11 24° SSW 21:14:24 10° SSE daylight
28 Feb - 13:08:39 10° SW 13:11:51 28° SSE 13:15:41 10° E daylight
28 Feb - 15:18:35 10° WSW 15:22:53 67° S 15:29:46 10° E daylight
28 Feb - 17:29:06 10° W 17:34:53 56° SSW 17:45:09 10° ESE daylight
28 Feb - 19:40:37 10° W 19:47:57 31° SSW 19:59:30 10° SSE daylight
28 Feb - 21:58:24 10° SW 22:02:12 12° SSW 22:06:27 10° SSW daylight
29 Feb - 11:56:38 10° S 11:58:35 14° SSE 12:00:33 10° ESE visible
29 Feb - 14:05:37 10° WSW 14:09:19 52° SSE 14:14:26 10° E daylight
29 Feb - 16:16:02 10° W 16:20:48 64° S 16:28:55 10° ESE daylight
29 Feb - 18:26:51 10° W 18:33:11 39° SSW 18:43:49 10° SE daylight
29 Feb - 20:40:24 10° WSW 20:46:46 18° SSW 20:55:15 10° S daylight
01 Mar - 12:52:41 10° SW 12:55:59 32° SSE 12:59:42 10° E daylight
01 Mar - 15:03:00 10° W 15:07:02 66° S 15:13:12 10° E daylight
01 Mar - 17:13:34 10° W 17:18:50 48° SSW 17:27:52 10° ESE daylight
01 Mar - 19:25:24 10° WSW 19:31:43 25° SSW 19:41:08 10° SSE daylight
